Regional Weather Roundup
Issued by NWS

Home | Current Version | Previous Version | Graphics & Text | Print | Product List | Glossary On
Versions: 1 2 3 4 5 6 7 8 9 10 11 12 13 14 15 16 17 18 19 20 21 22 23 24 25 26 27 28 29 30 31 32 33 34 35 36 37 38 39 40 41 42 43 44 45 46 47 48 49 50
914
ASUS45 KBOU 271507
RWRCO

WEATHER ROUNDUP FOR COLORADO
NATIONAL WEATHER SERVICE DENVER/BOULDER CO
900 AM MDT TUE JUN 27 2017

NOTE: "FAIR" INDICATES FEW OR NO CLOUDS BELOW 12000 FEET WITH NO
SIGNIFICANT WEATHER AND/OR OBSTRUCTIONS TO VISIBILITY.

COZ001>005-013-030-031-271600-
...NORTHWEST COLORADO...

CITY           SKY/WX    TMP DP  RH WIND       PRES   REMARKS
CRAIG          FAIR      67  41  38 NW3       30.05F
HAYDEN         FAIR      66  36  32 E10       30.07F
MEEKER         FAIR      68  42  38 CALM      30.06F
RABBIT EARS PA FAIR      61  32  33 CALM      30.37F
STEAMBOAT SPGS FAIR      60  39  46 CALM      30.10S
WALDEN         FAIR      63  37  39 E7        30.19F
$$

COZ006>008-011-271600-
...WEST CENTRAL VALLEYS...

CITY           SKY/WX    TMP DP  RH WIND       PRES   REMARKS
GRAND JUNCTION FAIR      82  35  18 SE17      29.97S
MONTROSE       FAIR      80  38  22 SE6       30.10S
EAGLE          SUNNY     59  34  38 CALM      30.17F
RIFLE          FAIR      67  35  30 CALM      30.05F
DELTA          FAIR      79  34  19 E7        30.05F
NUCLA          FAIR      79  30  17 S13       30.14S
$$

COZ017>023-064>068-271600-
...SOUTHWEST COLORADO...

CITY           SKY/WX    TMP DP  RH WIND       PRES   REMARKS
DURANGO        FAIR      70  41  34 E5        30.23F
CORTEZ         FAIR      74  45  35 CALM      30.15S
PAGOSA SPRINGS FAIR      64  39  40 CALM      30.32F
TELLURIDE      FAIR      68  33  27 CALM      30.37F
WOLF CREEK PAS FAIR      45  36  70 SW14G21   30.62S
$$

COZ009-010-012-014-032>034-037-058>063-271600-
...CENTRAL COLORADO...

CITY           SKY/WX    TMP DP  RH WIND       PRES   REMARKS
ASPEN          FAIR      73  35  25 SE10      30.20S
BUENA VISTA    FAIR      64  34  32 MISG      30.28F
COPPER MTN     FAIR      55  27  33 S16G25    30.53S
BERTHOUD PASS  FAIR      48  34  57 W20G30    30.54R
COTTONWOOD PAS FAIR      59  36  41 CALM      30.39F
GUNNISON       FAIR      61  38  42 N8        30.28F
KREMMLING      NOT AVBL
LEADVILLE      FAIR      54  33  45 S5        30.38F
MONARCH PASS   FAIR      50  32  50 SW23      30.65S
SALIDA         FAIR      72  36  26 S8G17     30.30F
SUNLIGHT       PTSUNNY   54  32  43 SW15G24   30.44S
WILKERSON PASS FAIR      52  32  46 SW14      30.50S
$$

COZ069>075-271600-
...SAN LUIS VALLEY/SANGRE DE CRISTO MOUNTAINS...

CITY           SKY/WX    TMP DP  RH WIND       PRES   REMARKS
ALAMOSA        FAIR      62  43  49 SE6       30.30F
DEL NORTE      FAIR      58  40  51 CALM      30.33F
LA VETA PASS   FAIR      54  39  58 S22       30.55R
SAGUACHE       FAIR      59  37  44 W6        30.33S
$$

COZ035-036-038>040-271600-
...NORTHERN COLORADO FRONT RANGE...

CITY           SKY/WX    TMP DP  RH WIND       PRES   REMARKS
DENVER INTL AP FAIR      70  53  54 NW12      29.98S
DMNS CITY PARK   N/A     74  52  47 E3G13     29.97F
AURORA         MOSUNNY   79  39  23 SW15G22   29.99F
FRONT RANGE AP FAIR      79  46  31 NW12      29.99S
ERIE MUNI ARPT FAIR      66  56  70 NE3       29.97F
BOULDER MUN AP FAIR      64  55  72 CALM      29.97F
CENTENNIAL     FAIR      79  38  22 W17G25    30.00F
BROOMFIELD     FAIR      68  54  60 CALM      30.00F
FORT COLLINS   FAIR      68  56  65 CALM      29.96F
LONGMONT       FAIR      71  56  58 CALM      29.98F
$$

COZ041-046-047-076>085-087-088-271600-
...PIKES PEAK/PALMER DIVIDE AND SOUTHERN FOOTHILLS...

CITY           SKY/WX    TMP DP  RH WIND       PRES   REMARKS
COLO. SPRINGS  FAIR      68  46  45 E5        30.09F
A. F. ACADEMY  FAIR      69  46  43 S7        30.09F
SCHRIEVER AFB  FAIR      68  44  42 W3        30.10F
CHEYENNE MTN   FAIR      67  48  50 E3        30.07F
ELLICOTT       FAIR     N/A N/A N/A SW9       30.07F
FALCON           N/A     72  39  30 SW5       30.14F
FORT CARSON    FAIR      68  46  44 NE5       30.06F
LIMON          FAIR      68  50  52 S16       30.02F
MONUMENT HILL  FAIR      75  36  23 W17G23    30.13F
CANON CITY     SUNNY     84  41  21 W17       30.04F
WALSENBURG     FAIR      81  41  24 W20G29    30.11S
TRINIDAD       FAIR      79  45  29 W9        30.09F
$$

COZ042>045-048>051-090-091-271600-
...NORTHEAST COLORADO...

CITY           SKY/WX    TMP DP  RH WIND       PRES   REMARKS
GREELEY ARPT   FAIR      68  58  70 VRB3      29.95F
AKRON          FAIR      73  55  53 SE14G23   29.95F
BURLINGTON     FAIR      70  60  70 S13       29.98F
WRAY           CLOUDY    63  59  88 S12       29.96F
YUMA           FAIR      64  54  68 SE12      29.95F
STERLING       FAIR      73  59  60 S12       29.91F
HOLYOKE        NOT AVBL
FORT MORGAN    FAIR      72  51  47 S5        29.94F
$$

COZ086-089-092>099-271600-
...SOUTHEAST COLORADO...

CITY           SKY/WX    TMP DP  RH WIND       PRES   REMARKS
PUEBLO         FAIR      69  48  47 SW5       30.01F
LA JUNTA       FAIR      78  53  41 SW8       29.99F
LAMAR          FAIR      73  60  63 VRB3      29.97F
SPRINGFIELD      N/A     78  58  49 S13       30.03F
$$




USA.gov is the U.S. government's official web portal to all federal, state and local government web resources and services.